Location: Newark
(44.1667°N, 8.2500°E)
Time: 10:48:10
(UTC+00:00)

Explorer 11/Cluster Stage 4 - Pass Details

Date: 15 December 2019
Orbit: 467 x 1259 km, 28.8° (Epoch: 29 January)

Event Time Altitude Azimuth Distance (km) Brightness Sun altitude
Rises 06:12:22 0° 204° (SSW) 4,191 10.3 -7.5°
Reaches altitude 10° 06:17:47 10° 176° (S) 3,182 10.1 -6.7°
Maximum altitude 06:20:23 12° 157° (SSE) 3,000 10.4 -6.2°
Drops below altitude 10° 06:22:55 10° 138° (SE) 3,081 11.0 -5.8°
Sets 06:27:54 0° 109° (ESE) 3,887 12.5 -5.0°
